Weather History for Bedford, MA

Change the Weather History Date:

Tuesday, March 12, 2013

  Actual Average Record
Temperature  
Mean Temperature 48 °F -  
Max Temperature 57 °F 42 °F 73 °F (2012)
Min Temperature 41 °F 25 °F 7 °F (1984)
Degree Days  
Heating Degree Days 17    
Moisture  
Dew Point 47 °F    
Average Humidity 91    
Maximum Humidity 100    
Minimum Humidity 75    
Precipitation  
Precipitation 0.37 in - - ()
Sea Level Pressure  
Sea Level Pressure 29.96 in    
Wind  
Wind Speed 8 mph (SSE)    
Max Wind Speed 17 mph    
Max Gust Speed 29 mph    
Visibility 8 miles    
Events Rain    
Averages and records for this station are not official NWS values.
T = Trace of Precipitation, MM = Missing Value Source: NWS Daily Summary

Daily Weather History Graph

Daily Weather History Graph

Search for Another Location

Airport:

Trip Planner

Search our weather history database for the weather conditions in past years. The results will help you decide how hot, cold, wet, or windy it might be!

Date:

Astronomy

Mar. 12, 2013 Rise Set
Actual Time 7:01 AM EDT 6:48 PM EDT
Civil Twilight 6:33 AM EDT 7:16 PM EDT
Nautical Twilight 6:01 AM EDT 7:49 PM EDT
Astronomical Twilight 5:28 AM EDT 8:22 PM EDT
Moon 7:04 AM EDT (3/12) 8:02 PM EDT (3/12)
Length of Visible Light 12h 42m
Length of Day
11h 46m
New Moon, 1% of the Moon is Illuminated
Mar 12
New Moon
Mar 19
First Quarter
Mar 27
Full
Apr 3
Last Quarter
Apr 10
New

Hourly Weather History & Observations

Time (EDT) Temp. Windchill Dew Point Humidity Pressure Visibility Wind Dir Wind Speed Gust Speed Precip Events Conditions
12:03 AM 41.0 °F 37.1 °F 39.2 °F 93% 30.15 in 10.0 mi South 5.8 mph - N/A   Overcast
12:53 AM 42.8 °F 37.5 °F 39.2 °F 87% 30.14 in 10.0 mi South 9.2 mph - N/A   Scattered Clouds
12:56 AM 42.1 °F 35.7 °F 39.9 °F 92% 30.18 in 10.0 mi South 11.5 mph - N/A   Scattered Clouds
1:17 AM 42.8 °F 38.0 °F 39.2 °F 87% 30.13 in 10.0 mi South 8.1 mph - N/A   Mostly Cloudy
1:56 AM 42.1 °F 37.1 °F 39.9 °F 92% 30.17 in 10.0 mi South 8.1 mph - N/A   Mostly Cloudy
2:56 AM 43.0 °F 38.8 °F 41.0 °F 93% 30.14 in 10.0 mi South 6.9 mph - N/A   Overcast
3:56 AM 42.1 °F 38.4 °F 41.0 °F 96% 30.11 in 8.0 mi SSE 5.8 mph - N/A   Overcast
4:56 AM 43.0 °F 40.3 °F 41.0 °F 93% 30.09 in 10.0 mi SSE 4.6 mph - N/A   Overcast
5:56 AM 43.0 °F 40.3 °F 42.1 °F 97% 30.10 in 7.0 mi ESE 4.6 mph - N/A   Overcast
6:56 AM 43.0 °F 40.3 °F 42.1 °F 97% 30.09 in 4.0 mi SE 4.6 mph - N/A   Overcast
7:04 AM 42.8 °F 40.1 °F 42.8 °F 100% 30.04 in 1.5 mi SE 4.6 mph - N/A   Overcast
7:56 AM 44.1 °F 40.8 °F 43.0 °F 96% 30.08 in 1.5 mi SE 5.8 mph - N/A   Overcast
8:03 AM 44.6 °F 41.4 °F 42.8 °F 93% 30.03 in 3.0 mi SE 5.8 mph - N/A   Overcast
8:52 AM 46.4 °F 45.2 °F 44.6 °F 93% 30.03 in 7.0 mi SE 3.5 mph - N/A   Overcast
8:56 AM 46.9 °F - 45.0 °F 93% 30.08 in 7.0 mi SE 5.8 mph - N/A   Overcast
9:56 AM 48.9 °F - 46.0 °F 90% 30.07 in 10.0 mi SSE 5.8 mph - N/A   Overcast
10:48 AM 50.0 °F - 46.4 °F 87% 30.00 in 10.0 mi SSE 10.4 mph - N/A   Overcast
10:56 AM 51.1 °F - 46.9 °F 86% 30.04 in 7.0 mi SSE 9.2 mph - N/A   Overcast
11:56 AM 52.0 °F - 48.0 °F 86% 30.02 in 10.0 mi SSE 12.7 mph - N/A   Overcast
12:28 PM 53.6 °F - 48.2 °F 82% 29.96 in 10.0 mi SSE 10.4 mph 19.6 mph N/A   Overcast
12:56 PM 53.1 °F - 48.0 °F 83% 29.99 in 10.0 mi SSE 11.5 mph - N/A   Overcast
1:56 PM 55.9 °F - 48.0 °F 75% 29.96 in 10.0 mi SSE 11.5 mph - N/A   Overcast
2:09 PM 55.4 °F - 48.2 °F 77% 29.91 in 10.0 mi SSE 10.4 mph - N/A   Overcast
2:17 PM 55.4 °F - 48.2 °F 77% 29.90 in 10.0 mi SSE 12.7 mph - 0.00 in Rain Light Rain
2:56 PM 55.9 °F - 48.9 °F 77% 29.93 in 5.0 mi SSE 12.7 mph - 0.00 in   Haze
3:56 PM 54.0 °F - 48.9 °F 83% 29.90 in 3.0 mi SSE 11.5 mph 21.9 mph 0.00 in   Haze
4:56 PM 53.1 °F - 48.9 °F 86% 29.88 in 9.0 mi SSE 10.4 mph 21.9 mph 0.00 in Rain Light Rain
5:40 PM 53.6 °F - 50.0 °F 88% 29.80 in 9.0 mi SSE 13.8 mph 24.2 mph 0.01 in Rain Light Rain
5:56 PM 53.1 °F - 51.1 °F 93% 29.83 in 7.0 mi SSE 13.8 mph 28.8 mph 0.02 in Rain Light Rain
6:56 PM 53.1 °F - 51.1 °F 93% 29.81 in 5.0 mi SSE 13.8 mph 23.0 mph 0.08 in Rain Rain
7:56 PM 53.1 °F - 51.1 °F 93% 29.77 in 4.0 mi SSE 15.0 mph 24.2 mph 0.21 in Rain Rain
8:56 PM 54.0 °F - 53.1 °F 97% 29.76 in 5.0 mi South 17.3 mph 27.6 mph 0.06 in Rain Light Rain
9:56 PM 53.1 °F - 53.1 °F 100% 29.76 in 10.0 mi South 12.7 mph - 0.00 in   Overcast
10:28 PM 53.6 °F - 53.6 °F 100% 29.72 in 10.0 mi South 8.1 mph - N/A   Overcast
10:56 PM 52.0 °F - 52.0 °F 100% 29.77 in 4.0 mi SSW 8.1 mph - 0.00 in Rain Light Rain
11:16 PM 51.8 °F - 51.8 °F 100% 29.72 in 10.0 mi South 6.9 mph - 0.00 in   Overcast
11:25 PM 51.8 °F - 51.8 °F 100% 29.72 in 10.0 mi South 6.9 mph - 0.00 in   Overcast
11:32 PM 51.8 °F - 51.8 °F 100% 29.72 in 10.0 mi South 6.9 mph - 0.00 in   Overcast
11:56 PM 52.0 °F - 51.1 °F 97% 29.76 in 7.0 mi SSW 6.9 mph - 0.00 in   Overcast